SCP
0 0 0 0 0 0 0 0 0 0 0 -0 0 0 -0 -0 0 0 -0 -0 -0 -0 0 -0 -0 0 0 -0 0 0 0 0 0 0 0 0 0 0 0 0 0 0 0 0 0 0 0 0 0 0 0 0 0 0
0 0 0 0 0 0 0 0 0 0 0 0 0 -0 -0 0 -0 -0 0 -0 -0 -0 -0 -0 -0 -0 -0 0 0 -0 0 0 0 0 0 0 0 0 0 0 0 0 0 0 0 0 0 0 0 0 0 0 0 0
0 0 0 0 0 0 0 0 0 0 0 0 0 0 0 -0 -0 -0 -0 -0 -0 0 -0 0 0 -0 0 0 0 0 0 0 0 0 0 0 0 0 0 0 0 0 0 0 0 0 0 0 0 0 0 0 0 0
0 0 0 0 0 0 0 0 0 0 0 0 -0 0 -0 -0 -0 -0 -0 -0 0 0 0 -0 -0 -0 -0 0 -0 0 0 0 0 0 0 0 0 0 0 0 0 0 0 0 0 0 0 0 0 0 0 0 0 0
0 0 0 0 0 0 0 -0 0 0 0 -0 -0 -0 -0 -0 -0 -0 -0 -0 -0 0 0 0 0 -0 -0 0 0 0 0 0 0 0 0 0 0 0 0 0 0 0 0 0 0 0 0 0 0 0 0 0 0 0
0 0 0 0 0 0 -0 0 0 0 0 -0 -0 -0 -0 -0 -0 0 0 0 0 0 0 0 -0 0 -0 0 0 0 0 0 0 0 0 0 0 0 0 0 0 0 0 0 0 0 0 0 0 0 0 0 0 0
0 0 0 0 0 -0 0 0 -0 -0 0 -0 -0 -0 -0 -0 0 0 0 0 -0 0 0 0 0 0 0 0 0 0 0 0 0 0 0 0 0 0 0 0 0 0 0 0 0 -0 0 0 0 0 0 0 0 0
0 0 0 0 0 -0 0 0 -0 0 -0 -0 -0 -0 -0 -0 -0 0 0 0 0 0 0 0 0 0 0 0 0 0 0 0 0 0 0 0 0 0 0 0 0 0 0 0 0 0 0 0 0 0 0 0 0 0
0 0 0 0 0 -0 -0 0 -0 -0 -0 -0 -0 -0 0 -0 0 0 0 0 0 0 0 0 0 0 0 0 0 0 0 0 0 0 0 0 0 0 0 0 0 0 0 0 0 0 0 0 0 0 0 0 0 0
0 0 0 -0 -0 -0 0 0 -0 -0 -0 -0 0 -0 0 0 -0 -0 0 0 0 0 0 0 0 0 0 -0 -0 -0 0 0 0 0 0 0 0 0 0 0 0 0 0 0 -0 -0 0 0 0 0 0 0 0 0
0 -0 -0 -0 -0 -0 0 0 -0 -0 -0 0 0 -0 0 -0 0 0 0 0 0 0 0 0 0 0 0 0 0 0 -0 -0 -0 0 -0 -0 0 0 0 0 0 -0 0 0 0 0 0 0 0 0 0 0 0 0
0 -0 -0 -0 0 0 -0 0 -0 -0 0 -0 -0 -0 0 0 0 0 0 0 0 0 0 0 0 0 0 -0 -0 -0 0 -0 0 -0 -0 -0 0 -0 -0 -0 -0 0 0 0 -0 -0 -0 0 0 0 0 0 0 0
0 -0 -0 0 0 0 -0 -0 -0 -0 -0 -0 -0 0 0 0 0 0 0 0 0 0 0 -0 -0 -0 -0 -0 -0 -0 -0 -0 -0 -0 -0 0 0 -0 -0 -0 -0 -0 -0 0 -0 0 0 0 0 0 0 0 0 0
0 0 0 -0 0 -0 -0 -0 -0 -0 -0 0 0 0 0 0 0 0 0 -0 0 0 0 0 0 0 0 0 0 -0 -0 0 0 0 -0 -0 -0 -0 -0 -0 -0 -0 0 0 0 0 0 0 0 0 0 0 0 0
0 0 -0 0 0 0 -0 -0 -0 0 0 0 0 0 0 -0 0 0 -0 -0 -0 0 -0 0 -0 -0 -0 0 0 0 0 0 0 0 0 -0 -0 -0 -0 -0 0 0 0 0 0 0 0 0 0 0 0 0 0 -0
0 0 0 -0 -0 -0 0 -0 0 0 0 0 0 0 0 0 0 0 0 0 0 0 0 -0 0 -0 -0 -0 0 0 0 0 0 -0 -0 -0 0 -0 -0 -0 -0 -0 -0 -0 -0 -0 0 0 -0 -0 -0 0 0 -0
0 0 0 -0 -0 -0 -0 0 0 0 0 0 0 0 0 0 0 0 0 0 -0 0 0 0 0 0 0 0 0 0 0 0 -0 -0 -0 0 0 0 -0 -0 -0 -0 -0 -0 0 0 -0 0 0 0 0 -0 -0 0
0 0 0 -0 -0 -0 -0 0 0 0 0 0 0 0 0 -0 0 0 0 -0 -0 0 0 0 0 0 0 0 0 0 0 -0 -0 -0 0 -0 -0 -0 -0 -0 -0 0 0 0 0 0 -0 -0 -0 -0 -0 -0 -0 -0
0 0 0 -0 -0 -0 0 0 0 0 0 0 0 0 0 0 0 -0 -0 0 0 0 0 0 0 0 0 0 -0 -0 -0 -0 -0 -0 -0 -0 -0 -0 -0 -0 0 0 0 0 -0 -0 0 -0 -0 0 -0 -0 -0 -0
0 0 0 -0 0 0 0 0 0 0 0 0 0 0 0 0 -0 -0 0 0 0 0 0 0 0 0 -0 -0 -0 -0 -0 -0 -0 -0 -0 -0 -0 -0 -0 0 0 -0 0 -0 -0 -0 -0 0 0 0 0 0 -0 0
0 0 0 0 0 0 0 0 0 0 0 0 0 -0 0 0 -0 0 0 0 0 0 0 0 0 0 0 -0 0 0 -0 0 0 0 -0 -0 0 0 -0 0 -0 0 0 0 -0 0 0 0 0 -0 -0 -0 -0 -0
0 -0 0 0 0 0 0 0 0 0 0 0 -0 -0 0 -0 -0 0 0 -0 0 0 0 0 0 0 0 -0 0 -0 -0 -0 0 -0 -0 0 0 0 0 0 0 0 0 0 0 -0 -0 -0 -0 -0 -0 0 0 0
-0 0 0 0 0 0 0 0 0 0 0 0 0 -0 -0 -0 -0 -0 0 0 0 0 0 0 -0 -0 0 -0 -0 -0 0 0 0 0 -0 -0 0 0 0 0 0 0 0 -0 -0 -0 -0 -0 0 0 0 0 0 0
0 0 0 0 -0 0 0 0 0 0 0 0 0 0 -0 -0 -0 -0 0 0 0 0 0 0 -0 -0 0 -0 -0 -0 -0 0 -0 0 0 -0 -0 0 0 0 0 -0 -0 -0 -0 -0 -0 0 0 0 0 0 0 0
0 0 0 -0 -0 0 0 0 0 0 0 0 0 0 0 -0 -0 -0 0 0 0 0 0 0 -0 -0 -0 -0 -0 -0 -0 0 0 -0 0 0 -0 -0 -0 -0 -0 -0 -0 -0 -0 0 0 0 0 0 0 0 0 0
0 0 0 0 -0 0 0 0 0 0 0 0 0 0 0 -0 -0 -0 0 0 0 0 0 0 0 -0 -0 -0 -0 -0 -0 0 0 0 -0 -0 -0 -0 -0 -0 -0 -0 0 0 0 0 0 0 0 0 0 0 0 0
0 0 0 0 0 0 0 0 0 0 0 0 0 0 -0 -0 -0 0 0 0 0 0 0 0 -0 0 -0 -0 -0 -0 0 0 0 -0 -0 -0 -0 -0 -0 -0 -0 -0 0 0 0 0 0 0 0 0 0 0 0 0
0 0 -0 0 -0 0 0 0 0 0 0 0 0 0 0 0 0 0 0 0 0 0 0 0 0 -0 0 -0 -0 -0 0 -0 -0 -0 -0 -0 -0 -0 -0 -0 -0 0 0 0 0 0 0 0 0 0 0 0 0 0
0 0 0 0 0 0 0 0 0 0 0 0 0 0 0 0 0 0 0 0 0 0 0 0 0 0 0 -0 -0 0 0 -0 -0 -0 -0 -0 -0 -0 -0 -0 0 0 0 0 0 0 0 0 0 0 0 0 0 0
0 0 0 0 0 0 0 0 0 0 0 0 0 -0 -0 -0 0 0 0 0 0 -0 0 0 0 0 -0 -0 -0 0 0 0 0 -0 -0 -0 -0 -0 -0 0 0 0 0 0 0 0 0 0 0 0 0 0 0 0
0 0 0 0 0 0 0 0 0 -0 -0 -0 -0 0 -0 0 0 0 0 0 0 0 0 0 0 0 -0 -0 -0 -0 0 0 -0 -0 -0 -0 -0 -0 0 0 0 0 0 0 0 0 0 0 0 0 0 0 0 0
0 0 0 0 0 0 0 0 0 -0 -0 -0 -0 0 0 0 0 0 0 0 0 0 0 -0 0 0 0 0 0 0 0 -0 -0 -0 -0 -0 -0 0 0 0 0 0 0 0 0 0 0 0 0 0 0 0 0 0
0 0 0 0 0 0 -0 -0 -0 -0 -0 -0 -0 0 0 0 0 0 0 0 0 0 0 0 0 0 0 0 0 0 0 0 -0 0 0 0 0 0 0 0 0 0 0 0 0 0 0 0 0 0 0 0 0 0
Wind_Speed_500mb
52 46 50 53 54 48 38 43 46 50 44 42 49 50 49 41 35 34 30 22 20 10 36 16 20 17 21 6 3 9 6 6 5 1 1 4 3 6 8 11 20 12 11 6 7 6 7 11 11 3 16 21 18 17
46 45 48 54 49 38 41 43 44 49 44 43 50 50 41 33 22 26 28 23 13 16 22 31 23 20 20 13 12 1 6 4 12 3 3 2 5 2 18 8 13 9 2 10 2 8 21 24 30 22 20 23 20 17
43 44 48 52 51 38 38 40 43 46 38 42 49 41 32 35 24 27 23 20 25 9 15 8 5 5 12 9 11 10 2 6 6 6 5 4 6 5 5 8 8 8 8 9 14 21 26 32 31 29 27 26 20 18
37 40 43 47 52 38 38 38 43 43 37 41 46 38 36 29 26 24 25 19 16 9 4 5 9 9 16 4 11 2 7 8 8 7 7 3 4 7 5 7 6 2 11 14 28 27 31 25 27 28 27 24 21 19
36 38 40 48 55 46 41 43 45 41 34 37 39 34 29 29 27 29 15 8 10 9 6 12 9 21 18 17 11 5 6 3 1 3 3 6 5 2 5 2 8 11 11 10 7 38 16 33 28 25 25 23 21 20
35 38 38 42 44 48 47 44 44 39 35 39 36 32 28 29 25 21 6 12 9 8 6 3 9 15 20 20 19 16 13 12 8 6 7 7 5 7 2 5 7 7 8 6 20 23 35 43 32 26 27 24 21 21
34 38 36 40 40 45 47 44 41 35 35 35 36 30 25 23 19 7 7 16 9 5 3 0 5 3 11 7 11 15 17 12 10 5 5 4 7 5 1 4 5 12 16 27 40 51 47 40 35 29 28 25 23 21
35 35 37 41 42 43 45 42 34 34 38 35 31 21 18 13 11 14 15 6 5 5 4 2 3 4 3 10 5 9 6 7 12 5 1 3 6 3 4 19 16 23 34 38 17 17 35 40 35 28 21 16 17 20
34 38 40 42 45 41 40 39 26 36 36 30 21 11 8 12 11 13 11 5 7 7 4 3 4 5 6 4 6 4 2 4 5 2 3 0 3 4 9 14 22 31 21 24 31 39 41 35 31 25 19 17 16 17
37 39 42 44 40 39 39 37 26 35 30 22 13 5 5 10 19 13 6 5 5 5 6 4 4 3 2 3 3 1 4 3 3 3 3 1 3 10 7 9 35 21 30 31 39 34 32 30 27 23 19 17 16 14
41 42 42 39 34 39 39 29 23 33 26 18 13 8 12 17 7 4 4 4 4 3 6 5 10 4 8 4 5 6 4 2 2 6 2 1 3 9 18 20 28 35 33 27 15 26 23 26 26 22 18 17 16 14
42 42 33 23 30 33 31 26 19 25 20 24 15 14 13 6 3 3 2 3 1 5 3 2 6 5 4 6 1 2 3 3 4 4 2 4 6 25 32 33 37 31 26 28 30 33 31 28 24 21 17 14 14 15
39 35 22 21 26 27 27 20 21 21 22 9 6 5 6 4 4 7 5 4 4 8 5 1 2 3 2 3 2 2 3 2 5 6 2 5 6 36 38 40 39 31 29 30 34 33 31 29 24 21 19 15 15 15
32 29 22 16 25 22 18 14 18 25 11 7 8 5 5 4 10 7 9 7 6 5 5 2 5 5 3 2 1 3 4 4 5 3 4 5 25 25 40 36 33 31 31 31 31 28 26 23 23 22 18 15 15 15
29 27 14 15 23 21 18 18 20 19 7 5 6 5 5 3 10 14 11 7 4 5 7 3 4 1 2 3 3 4 4 6 4 5 4 28 37 33 35 34 33 32 32 30 26 24 23 22 23 22 18 17 17 16
27 20 13 18 21 18 20 17 18 6 6 4 3 7 8 8 7 8 8 5 3 12 7 3 2 4 4 3 4 6 5 3 4 6 34 31 31 28 35 32 32 31 28 26 23 24 22 21 20 21 19 18 18 19
23 17 17 18 20 18 16 15 8 5 5 6 3 11 13 15 12 10 10 2 6 9 2 3 4 3 2 3 4 1 5 3 29 36 33 26 32 35 31 32 31 29 27 25 24 23 21 21 20 18 17 16 17 18
25 22 18 15 17 16 10 9 6 4 3 6 8 11 8 6 6 8 3 9 1 2 4 4 6 3 2 5 4 4 12 39 30 25 31 33 34 33 33 33 31 28 27 26 26 25 20 16 13 13 13 13 14 14
25 17 10 12 14 12 7 5 5 6 4 8 10 11 7 5 3 3 4 9 11 2 4 5 3 2 2 10 22 33 32 33 36 35 35 33 33 32 31 29 28 26 25 24 23 20 18 17 16 15 11 10 11 12
9 6 7 8 10 5 5 3 4 5 5 7 8 12 11 3 4 7 4 5 6 1 1 1 1 6 18 26 26 31 31 34 38 39 35 33 32 31 28 26 26 26 25 24 22 22 19 18 16 13 12 12 12 13
2 6 6 6 6 4 5 5 5 6 10 8 8 14 8 5 4 7 10 10 4 4 3 6 11 17 21 25 27 26 24 26 29 32 37 35 29 27 25 25 23 22 21 18 17 17 16 15 14 12 12 13 13 13
6 4 9 4 3 4 6 6 7 10 8 10 11 8 7 7 7 8 10 3 5 5 5 6 14 22 28 27 24 21 25 27 29 32 31 31 29 25 22 20 18 17 16 15 13 14 14 13 12 11 11 12 11 11
6 5 4 2 3 4 6 5 6 5 5 4 8 5 2 3 5 7 1 3 6 5 7 9 18 23 29 27 27 26 27 33 35 33 29 27 25 22 20 17 14 14 14 13 13 13 13 11 12 11 10 11 10 10
9 5 4 4 7 5 5 5 5 6 6 5 4 5 1 4 6 3 1 2 6 12 10 21 26 30 28 29 27 26 28 30 30 24 23 25 24 21 17 16 13 12 12 13 14 14 13 9 11 8 8 8 9 9
6 5 6 7 6 5 5 4 4 5 5 3 4 3 1 2 2 1 1 5 11 14 10 22 23 23 28 29 27 26 25 28 26 23 20 19 22 22 20 16 14 12 12 13 14 14 12 10 8 8 8 8 8 9
7 9 10 8 7 7 5 4 5 3 4 4 4 3 2 2 3 3 2 2 17 14 11 19 23 26 27 30 33 30 26 22 22 21 20 18 16 16 18 16 12 9 10 12 14 14 13 11 9 9 8 9 11 10
6 9 11 11 5 4 9 11 8 4 3 4 3 3 2 4 2 4 3 6 17 15 19 16 26 24 32 33 30 26 23 20 18 21 23 20 17 16 11 10 10 11 15 14 14 14 13 11 10 10 9 9 8 8
11 6 10 12 11 11 7 6 2 3 2 1 3 3 3 5 4 2 2 16 24 17 21 6 18 26 28 29 30 29 26 24 22 24 27 25 21 16 12 10 7 14 18 16 15 14 12 11 11 11 10 8 7 7
10 9 12 12 12 10 9 5 1 2 2 2 4 1 2 3 2 3 1 20 25 26 14 11 20 31 33 33 29 26 27 28 28 30 26 23 22 18 17 12 12 14 13 13 14 13 13 13 12 11 11 9 8 7
9 16 9 5 5 6 4 5 3 4 4 5 6 7 9 8 8 7 6 15 18 22 18 14 24 27 31 32 29 27 27 24 20 19 20 24 24 24 23 17 16 16 14 12 9 8 8 8 8 8 10 8 6 6
7 15 8 5 6 7 6 7 8 9 9 9 10 12 12 10 12 10 13 17 28 27 30 17 19 21 25 28 30 31 27 25 24 20 15 18 22 27 24 18 15 15 15 14 13 12 12 11 10 10 9 8 6 6
15 16 10 7 5 5 6 5 5 7 7 8 8 8 5 5 7 7 11 19 29 32 37 35 32 15 21 22 19 20 25 28 28 23 18 19 25 27 23 17 14 14 14 14 13 14 13 12 10 10 10 9 7 5
10 9 4 3 3 4 7 5 5 5 6 6 7 9 10 7 8 6 10 25 20 28 35 31 38 21 23 26 26 26 23 27 25 23 20 17 17 20 19 16 14 14 13 13 13 11 10 8 8 7 6 6 6 6
Wind_Direction_500mb
338 340 338 334 333 337 347 343 340 337 340 342 340 337 333 323 326 326 317 309 290 266 297 285 313 325 321 350 15 325 257 8 275 196 168 88 57 92 81 130 144 156 148 165 184 174 162 153 169 296 106 104 91 68
338 339 338 336 336 342 346 344 341 340 339 344 342 333 328 335 335 334 331 325 305 279 268 304 283 309 290 323 330 306 358 13 22 43 16 84 94 144 151 123 156 157 129 158 156 92 97 85 90 101 107 100 75 61
342 341 339 338 343 340 344 340 341 341 342 342 350 355 351 350 331 334 324 343 340 283 294 314 335 310 349 274 245 328 93 20 56 356 52 46 88 289 126 88 120 121 150 122 142 118 105 98 96 97 99 93 81 64
343 340 340 340 337 335 340 338 343 339 340 343 353 347 347 342 340 333 325 321 338 319 306 333 44 50 337 104 158 91 59 76 64 19 41 71 97 340 61 106 102 18 160 132 94 108 106 111 108 109 102 92 79 65
340 337 338 344 350 343 339 340 343 340 339 342 345 343 339 345 335 328 331 308 288 299 314 332 26 32 64 108 96 69 108 92 22 133 53 65 70 269 73 203 129 159 160 171 184 164 142 136 128 120 107 92 84 66
334 336 337 339 342 345 341 339 341 342 336 338 337 336 331 329 336 342 354 37 18 246 318 11 39 55 71 82 80 67 61 56 61 40 60 87 56 312 117 146 82 161 98 89 111 135 129 134 130 124 108 97 85 69
328 333 331 336 341 340 337 337 337 340 338 334 331 332 330 332 344 11 339 322 6 101 338 307 70 8 12 45 62 54 51 55 48 61 48 58 94 346 275 121 116 98 118 114 117 120 124 134 134 127 111 96 80 68
330 334 335 340 335 334 337 335 340 344 335 331 334 346 1 32 64 46 15 4 101 62 32 10 78 134 207 5 70 23 60 53 34 61 331 76 141 192 215 117 93 115 120 126 136 138 136 132 131 127 115 93 76 62
327 332 331 332 334 331 334 334 341 340 335 334 339 352 16 17 15 356 26 58 59 48 12 34 357 76 113 20 9 24 12 78 49 63 85 260 126 212 82 156 134 146 142 140 122 128 133 133 130 122 107 87 80 64
330 328 330 329 332 336 335 335 338 350 349 351 18 19 12 337 330 341 358 356 21 18 21 34 76 91 54 145 51 324 11 67 160 80 116 1 234 134 112 145 150 152 151 140 135 140 141 138 134 123 104 86 76 64
336 330 326 329 340 342 341 337 337 350 7 10 5 354 315 322 3 348 343 343 19 103 27 41 17 58 32 349 53 63 323 216 234 83 301 185 163 125 137 111 120 136 143 142 151 139 139 140 138 130 111 83 66 58
334 330 331 349 348 348 349 345 345 0 353 333 316 323 340 344 318 298 27 141 8 59 108 11 72 42 30 23 51 202 320 278 42 96 248 193 68 107 115 118 120 111 107 120 125 124 123 122 125 121 110 85 65 65
338 336 340 348 349 351 355 359 5 353 338 354 341 320 346 332 322 1 36 65 66 14 51 148 126 356 181 72 65 300 286 344 136 213 162 50 36 133 131 127 125 121 123 125 122 120 116 113 111 110 103 83 80 73
337 335 331 340 347 352 360 19 5 355 356 356 343 352 350 28 29 6 343 344 16 316 298 92 103 358 11 235 62 245 181 241 245 267 91 88 120 129 132 135 133 134 135 133 129 125 119 114 109 106 95 84 81 76
333 339 330 348 343 340 345 346 347 345 350 340 315 360 21 22 297 293 301 269 280 245 180 179 133 285 259 219 223 284 239 229 271 54 77 119 125 126 123 133 130 131 130 128 130 131 123 116 115 108 96 83 80 74
328 345 348 337 343 337 337 337 343 3 339 319 280 301 358 299 337 354 333 276 84 158 158 264 208 231 224 249 219 221 268 314 74 87 127 131 127 132 129 127 128 127 125 125 125 129 126 122 122 118 102 81 70 63
331 342 332 339 339 343 347 346 347 338 331 321 304 296 291 283 276 291 318 328 154 174 199 214 261 346 3 237 225 316 3 49 119 117 127 142 137 130 126 126 126 123 118 115 119 126 124 127 124 113 98 79 68 61
317 319 318 330 340 350 3 345 338 322 309 293 301 308 309 246 279 269 353 13 222 278 283 322 320 284 284 336 60 87 103 117 119 126 121 125 125 124 124 123 124 122 116 113 118 117 118 119 117 116 90 78 51 42
320 311 303 328 341 346 340 337 356 328 312 312 319 333 318 261 238 4 11 6 21 321 296 1 2 337 8 88 116 120 126 125 122 120 119 121 123 124 122 122 122 119 114 110 111 111 107 104 106 108 93 66 55 50
316 281 337 340 350 327 314 301 324 290 294 336 315 331 313 343 355 340 330 336 308 132 157 212 350 72 99 124 127 126 126 132 131 127 123 123 123 119 115 116 120 119 113 110 104 102 101 97 93 92 84 75 68 55
233 291 323 321 317 319 283 308 292 299 314 290 313 324 309 302 295 324 352 351 36 17 22 18 85 102 117 123 124 128 133 140 142 138 137 133 132 126 117 114 115 117 116 113 109 104 101 99 96 86 73 70 66 57
296 318 319 298 293 291 272 253 274 295 276 296 304 310 295 327 355 11 338 29 61 6 50 61 105 124 129 132 128 123 127 130 132 134 138 135 135 132 126 121 119 119 119 115 113 111 109 103 95 83 74 67 67 65
278 263 284 304 279 253 278 273 258 246 266 309 304 269 257 345 3 337 345 54 104 111 55 109 124 133 133 130 127 121 127 129 129 132 135 134 134 135 132 124 117 121 126 121 119 120 124 111 93 84 72 70 67 57
211 257 249 241 221 273 291 254 248 268 268 257 261 273 331 10 351 355 26 85 82 134 107 131 131 133 133 134 137 136 138 142 137 135 138 138 137 135 135 130 120 115 129 132 130 124 123 126 92 88 91 85 82 81
238 226 215 243 230 238 249 265 249 254 245 250 269 239 12 328 281 245 186 129 157 159 127 151 146 148 147 144 144 145 143 148 147 142 140 147 144 137 133 127 120 117 123 129 134 135 133 125 117 107 96 94 93 89
228 211 203 206 203 217 210 267 244 278 298 258 213 102 145 259 247 210 118 141 156 144 143 164 157 145 144 147 145 149 150 148 148 144 143 142 143 151 149 146 138 132 133 147 148 146 141 133 128 115 92 86 109 97
238 224 219 223 241 246 259 250 257 261 229 305 0 323 259 242 215 89 186 196 170 149 146 161 170 157 152 149 148 150 149 144 146 151 145 138 136 136 141 149 150 152 143 144 146 146 144 136 131 127 118 107 97 98
240 239 225 190 212 235 283 294 238 163 178 283 291 256 295 344 43 1 290 170 155 153 171 182 168 170 161 158 162 165 168 169 164 165 164 162 164 161 157 153 141 142 137 137 139 137 136 138 138 134 131 126 110 98
226 218 213 228 222 224 222 247 284 105 135 280 289 292 236 258 288 313 266 156 161 169 179 161 156 164 171 168 172 174 177 173 172 170 168 168 166 168 171 155 131 140 149 162 157 142 141 135 135 137 134 133 125 109
221 194 214 233 210 238 215 199 209 209 249 269 273 282 276 277 279 259 238 201 164 177 188 172 166 163 169 174 172 172 178 172 174 178 181 181 180 180 172 161 148 147 146 149 161 161 156 151 142 136 125 124 134 123
185 187 210 168 242 232 224 217 229 259 263 252 245 257 274 290 295 257 225 207 194 177 195 189 166 177 177 177 181 177 172 178 179 183 175 180 184 178 176 175 170 163 156 156 150 148 148 142 148 148 146 149 148 130
192 204 196 204 210 222 206 224 249 255 245 233 236 230 256 257 264 246 213 200 195 190 184 193 195 189 178 173 175 179 188 182 184 188 184 181 179 182 184 184 179 169 160 158 158 157 157 161 163 158 159 161 160 160
194 193 166 164 163 233 212 220 250 252 239 242 237 224 224 236 257 246 233 201 201 206 193 193 192 199 189 173 185 171 172 176 178 179 178 179 184 187 187 187 183 172 165 158 158 168 185 199 197 202 215 229 240 254
Wind_Speed_850mb
52 46 50 53 54 48 38 43 46 50 44 42 49 50 49 41 35 34 30 22 20 10 36 16 20 17 21 6 3 9 6 6 5 1 1 4 3 6 8 11 20 12 11 6 7 6 7 11 11 3 16 21 18 17
46 45 48 54 49 38 41 43 44 49 44 43 50 50 41 33 22 26 28 23 13 16 22 31 23 20 20 13 12 1 6 4 12 3 3 2 5 2 18 8 13 9 2 10 2 8 21 24 30 22 20 23 20 17
43 44 48 52 51 38 38 40 43 46 38 42 49 41 32 35 24 27 23 20 25 9 15 8 5 5 12 9 11 10 2 6 6 6 5 4 6 5 5 8 8 8 8 9 14 21 26 32 31 29 27 26 20 18
37 40 43 47 52 38 38 38 43 43 37 41 46 38 36 29 26 24 25 19 16 9 4 5 9 9 16 4 11 2 7 8 8 7 7 3 4 7 5 7 6 2 11 14 28 27 31 25 27 28 27 24 21 19
36 38 40 48 55 46 41 43 45 41 34 37 39 34 29 29 27 29 15 8 10 9 6 12 9 21 18 17 11 5 6 3 1 3 3 6 5 2 5 2 8 11 11 10 7 38 16 33 28 25 25 23 21 20
35 38 38 42 44 48 47 44 44 39 35 39 36 32 28 29 25 21 6 12 9 8 6 3 9 15 20 20 19 16 13 12 8 6 7 7 5 7 2 5 7 7 8 6 20 23 35 43 32 26 27 24 21 21
34 38 36 40 40 45 47 44 41 35 35 35 36 30 25 23 19 7 7 16 9 5 3 0 5 3 11 7 11 15 17 12 10 5 5 4 7 5 1 4 5 12 16 27 40 51 47 40 35 29 28 25 23 21
35 35 37 41 42 43 45 42 34 34 38 35 31 21 18 13 11 14 15 6 5 5 4 2 3 4 3 10 5 9 6 7 12 5 1 3 6 3 4 19 16 23 34 38 17 17 35 40 35 28 21 16 17 20
34 38 40 42 45 41 40 39 26 36 36 30 21 11 8 12 11 13 11 5 7 7 4 3 4 5 6 4 6 4 2 4 5 2 3 0 3 4 9 14 22 31 21 24 31 39 41 35 31 25 19 17 16 17
37 39 42 44 40 39 39 37 26 35 30 22 13 5 5 10 19 13 6 5 5 5 6 4 4 3 2 3 3 1 4 3 3 3 3 1 3 10 7 9 35 21 30 31 39 34 32 30 27 23 19 17 16 14
41 42 42 39 34 39 39 29 23 33 26 18 13 8 12 17 7 4 4 4 4 3 6 5 10 4 8 4 5 6 4 2 2 6 2 1 3 9 18 20 28 35 33 27 15 26 23 26 26 22 18 17 16 14
42 42 33 23 30 33 31 26 19 25 20 24 15 14 13 6 3 3 2 3 1 5 3 2 6 5 4 6 1 2 3 3 4 4 2 4 6 25 32 33 37 31 26 28 30 33 31 28 24 21 17 14 14 15
39 35 22 21 26 27 27 20 21 21 22 9 6 5 6 4 4 7 5 4 4 8 5 1 2 3 2 3 2 2 3 2 5 6 2 5 6 36 38 40 39 31 29 30 34 33 31 29 24 21 19 15 15 15
32 29 22 16 25 22 18 14 18 25 11 7 8 5 5 4 10 7 9 7 6 5 5 2 5 5 3 2 1 3 4 4 5 3 4 5 25 25 40 36 33 31 31 31 31 28 26 23 23 22 18 15 15 15
29 27 14 15 23 21 18 18 20 19 7 5 6 5 5 3 10 14 11 7 4 5 7 3 4 1 2 3 3 4 4 6 4 5 4 28 37 33 35 34 33 32 32 30 26 24 23 22 23 22 18 17 17 16
27 20 13 18 21 18 20 17 18 6 6 4 3 7 8 8 7 8 8 5 3 12 7 3 2 4 4 3 4 6 5 3 4 6 34 31 31 28 35 32 32 31 28 26 23 24 22 21 20 21 19 18 18 19
23 17 17 18 20 18 16 15 8 5 5 6 3 11 13 15 12 10 10 2 6 9 2 3 4 3 2 3 4 1 5 3 29 36 33 26 32 35 31 32 31 29 27 25 24 23 21 21 20 18 17 16 17 18
25 22 18 15 17 16 10 9 6 4 3 6 8 11 8 6 6 8 3 9 1 2 4 4 6 3 2 5 4 4 12 39 30 25 31 33 34 33 33 33 31 28 27 26 26 25 20 16 13 13 13 13 14 14
25 17 10 12 14 12 7 5 5 6 4 8 10 11 7 5 3 3 4 9 11 2 4 5 3 2 2 10 22 33 32 33 36 35 35 33 33 32 31 29 28 26 25 24 23 20 18 17 16 15 11 10 11 12
9 6 7 8 10 5 5 3 4 5 5 7 8 12 11 3 4 7 4 5 6 1 1 1 1 6 18 26 26 31 31 34 38 39 35 33 32 31 28 26 26 26 25 24 22 22 19 18 16 13 12 12 12 13
2 6 6 6 6 4 5 5 5 6 10 8 8 14 8 5 4 7 10 10 4 4 3 6 11 17 21 25 27 26 24 26 29 32 37 35 29 27 25 25 23 22 21 18 17 17 16 15 14 12 12 13 13 13
6 4 9 4 3 4 6 6 7 10 8 10 11 8 7 7 7 8 10 3 5 5 5 6 14 22 28 27 24 21 25 27 29 32 31 31 29 25 22 20 18 17 16 15 13 14 14 13 12 11 11 12 11 11
6 5 4 2 3 4 6 5 6 5 5 4 8 5 2 3 5 7 1 3 6 5 7 9 18 23 29 27 27 26 27 33 35 33 29 27 25 22 20 17 14 14 14 13 13 13 13 11 12 11 10 11 10 10
9 5 4 4 7 5 5 5 5 6 6 5 4 5 1 4 6 3 1 2 6 12 10 21 26 30 28 29 27 26 28 30 30 24 23 25 24 21 17 16 13 12 12 13 14 14 13 9 11 8 8 8 9 9
6 5 6 7 6 5 5 4 4 5 5 3 4 3 1 2 2 1 1 5 11 14 10 22 23 23 28 29 27 26 25 28 26 23 20 19 22 22 20 16 14 12 12 13 14 14 12 10 8 8 8 8 8 9
7 9 10 8 7 7 5 4 5 3 4 4 4 3 2 2 3 3 2 2 17 14 11 19 23 26 27 30 33 30 26 22 22 21 20 18 16 16 18 16 12 9 10 12 14 14 13 11 9 9 8 9 11 10
6 9 11 11 5 4 9 11 8 4 3 4 3 3 2 4 2 4 3 6 17 15 19 16 26 24 32 33 30 26 23 20 18 21 23 20 17 16 11 10 10 11 15 14 14 14 13 11 10 10 9 9 8 8
11 6 10 12 11 11 7 6 2 3 2 1 3 3 3 5 4 2 2 16 24 17 21 6 18 26 28 29 30 29 26 24 22 24 27 25 21 16 12 10 7 14 18 16 15 14 12 11 11 11 10 8 7 7
10 9 12 12 12 10 9 5 1 2 2 2 4 1 2 3 2 3 1 20 25 26 14 11 20 31 33 33 29 26 27 28 28 30 26 23 22 18 17 12 12 14 13 13 14 13 13 13 12 11 11 9 8 7
9 16 9 5 5 6 4 5 3 4 4 5 6 7 9 8 8 7 6 15 18 22 18 14 24 27 31 32 29 27 27 24 20 19 20 24 24 24 23 17 16 16 14 12 9 8 8 8 8 8 10 8 6 6
7 15 8 5 6 7 6 7 8 9 9 9 10 12 12 10 12 10 13 17 28 27 30 17 19 21 25 28 30 31 27 25 24 20 15 18 22 27 24 18 15 15 15 14 13 12 12 11 10 10 9 8 6 6
15 16 10 7 5 5 6 5 5 7 7 8 8 8 5 5 7 7 11 19 29 32 37 35 32 15 21 22 19 20 25 28 28 23 18 19 25 27 23 17 14 14 14 14 13 14 13 12 10 10 10 9 7 5
10 9 4 3 3 4 7 5 5 5 6 6 7 9 10 7 8 6 10 25 20 28 35 31 38 21 23 26 26 26 23 27 25 23 20 17 17 20 19 16 14 14 13 13 13 11 10 8 8 7 6 6 6 6
Wind_Direction_850mb
338 340 338 334 333 337 347 343 340 337 340 342 340 337 333 323 326 326 317 309 290 266 297 285 313 325 321 350 15 325 257 8 275 196 168 88 57 92 81 130 144 156 148 165 184 174 162 153 169 296 106 104 91 68
338 339 338 336 336 342 346 344 341 340 339 344 342 333 328 335 335 334 331 325 305 279 268 304 283 309 290 323 330 306 358 13 22 43 16 84 94 144 151 123 156 157 129 158 156 92 97 85 90 101 107 100 75 61
342 341 339 338 343 340 344 340 341 341 342 342 350 355 351 350 331 334 324 343 340 283 294 314 335 310 349 274 245 328 93 20 56 356 52 46 88 289 126 88 120 121 150 122 142 118 105 98 96 97 99 93 81 64
343 340 340 340 337 335 340 338 343 339 340 343 353 347 347 342 340 333 325 321 338 319 306 333 44 50 337 104 158 91 59 76 64 19 41 71 97 340 61 106 102 18 160 132 94 108 106 111 108 109 102 92 79 65
340 337 338 344 350 343 339 340 343 340 339 342 345 343 339 345 335 328 331 308 288 299 314 332 26 32 64 108 96 69 108 92 22 133 53 65 70 269 73 203 129 159 160 171 184 164 142 136 128 120 107 92 84 66
334 336 337 339 342 345 341 339 341 342 336 338 337 336 331 329 336 342 354 37 18 246 318 11 39 55 71 82 80 67 61 56 61 40 60 87 56 312 117 146 82 161 98 89 111 135 129 134 130 124 108 97 85 69
328 333 331 336 341 340 337 337 337 340 338 334 331 332 330 332 344 11 339 322 6 101 338 307 70 8 12 45 62 54 51 55 48 61 48 58 94 346 275 121 116 98 118 114 117 120 124 134 134 127 111 96 80 68
330 334 335 340 335 334 337 335 340 344 335 331 334 346 1 32 64 46 15 4 101 62 32 10 78 134 207 5 70 23 60 53 34 61 331 76 141 192 215 117 93 115 120 126 136 138 136 132 131 127 115 93 76 62
327 332 331 332 334 331 334 334 341 340 335 334 339 352 16 17 15 356 26 58 59 48 12 34 357 76 113 20 9 24 12 78 49 63 85 260 126 212 82 156 134 146 142 140 122 128 133 133 130 122 107 87 80 64
330 328 330 329 332 336 335 335 338 350 349 351 18 19 12 337 330 341 358 356 21 18 21 34 76 91 54 145 51 324 11 67 160 80 116 1 234 134 112 145 150 152 151 140 135 140 141 138 134 123 104 86 76 64
336 330 326 329 340 342 341 337 337 350 7 10 5 354 315 322 3 348 343 343 19 103 27 41 17 58 32 349 53 63 323 216 234 83 301 185 163 125 137 111 120 136 143 142 151 139 139 140 138 130 111 83 66 58
334 330 331 349 348 348 349 345 345 0 353 333 316 323 340 344 318 298 27 141 8 59 108 11 72 42 30 23 51 202 320 278 42 96 248 193 68 107 115 118 120 111 107 120 125 124 123 122 125 121 110 85 65 65
338 336 340 348 349 351 355 359 5 353 338 354 341 320 346 332 322 1 36 65 66 14 51 148 126 356 181 72 65 300 286 344 136 213 162 50 36 133 131 127 125 121 123 125 122 120 116 113 111 110 103 83 80 73
337 335 331 340 347 352 360 19 5 355 356 356 343 352 350 28 29 6 343 344 16 316 298 92 103 358 11 235 62 245 181 241 245 267 91 88 120 129 132 135 133 134 135 133 129 125 119 114 109 106 95 84 81 76
333 339 330 348 343 340 345 346 347 345 350 340 315 360 21 22 297 293 301 269 280 245 180 179 133 285 259 219 223 284 239 229 271 54 77 119 125 126 123 133 130 131 130 128 130 131 123 116 115 108 96 83 80 74
328 345 348 337 343 337 337 337 343 3 339 319 280 301 358 299 337 354 333 276 84 158 158 264 208 231 224 249 219 221 268 314 74 87 127 131 127 132 129 127 128 127 125 125 125 129 126 122 122 118 102 81 70 63
331 342 332 339 339 343 347 346 347 338 331 321 304 296 291 283 276 291 318 328 154 174 199 214 261 346 3 237 225 316 3 49 119 117 127 142 137 130 126 126 126 123 118 115 119 126 124 127 124 113 98 79 68 61
317 319 318 330 340 350 3 345 338 322 309 293 301 308 309 246 279 269 353 13 222 278 283 322 320 284 284 336 60 87 103 117 119 126 121 125 125 124 124 123 124 122 116 113 118 117 118 119 117 116 90 78 51 42
320 311 303 328 341 346 340 337 356 328 312 312 319 333 318 261 238 4 11 6 21 321 296 1 2 337 8 88 116 120 126 125 122 120 119 121 123 124 122 122 122 119 114 110 111 111 107 104 106 108 93 66 55 50
316 281 337 340 350 327 314 301 324 290 294 336 315 331 313 343 355 340 330 336 308 132 157 212 350 72 99 124 127 126 126 132 131 127 123 123 123 119 115 116 120 119 113 110 104 102 101 97 93 92 84 75 68 55
233 291 323 321 317 319 283 308 292 299 314 290 313 324 309 302 295 324 352 351 36 17 22 18 85 102 117 123 124 128 133 140 142 138 137 133 132 126 117 114 115 117 116 113 109 104 101 99 96 86 73 70 66 57
296 318 319 298 293 291 272 253 274 295 276 296 304 310 295 327 355 11 338 29 61 6 50 61 105 124 129 132 128 123 127 130 132 134 138 135 135 132 126 121 119 119 119 115 113 111 109 103 95 83 74 67 67 65
278 263 284 304 279 253 278 273 258 246 266 309 304 269 257 345 3 337 345 54 104 111 55 109 124 133 133 130 127 121 127 129 129 132 135 134 134 135 132 124 117 121 126 121 119 120 124 111 93 84 72 70 67 57
211 257 249 241 221 273 291 254 248 268 268 257 261 273 331 10 351 355 26 85 82 134 107 131 131 133 133 134 137 136 138 142 137 135 138 138 137 135 135 130 120 115 129 132 130 124 123 126 92 88 91 85 82 81
238 226 215 243 230 238 249 265 249 254 245 250 269 239 12 328 281 245 186 129 157 159 127 151 146 148 147 144 144 145 143 148 147 142 140 147 144 137 133 127 120 117 123 129 134 135 133 125 117 107 96 94 93 89
228 211 203 206 203 217 210 267 244 278 298 258 213 102 145 259 247 210 118 141 156 144 143 164 157 145 144 147 145 149 150 148 148 144 143 142 143 151 149 146 138 132 133 147 148 146 141 133 128 115 92 86 109 97
238 224 219 223 241 246 259 250 257 261 229 305 0 323 259 242 215 89 186 196 170 149 146 161 170 157 152 149 148 150 149 144 146 151 145 138 136 136 141 149 150 152 143 144 146 146 144 136 131 127 118 107 97 98
240 239 225 190 212 235 283 294 238 163 178 283 291 256 295 344 43 1 290 170 155 153 171 182 168 170 161 158 162 165 168 169 164 165 164 162 164 161 157 153 141 142 137 137 139 137 136 138 138 134 131 126 110 98
226 218 213 228 222 224 222 247 284 105 135 280 289 292 236 258 288 313 266 156 161 169 179 161 156 164 171 168 172 174 177 173 172 170 168 168 166 168 171 155 131 140 149 162 157 142 141 135 135 137 134 133 125 109
221 194 214 233 210 238 215 199 209 209 249 269 273 282 276 277 279 259 238 201 164 177 188 172 166 163 169 174 172 172 178 172 174 178 181 181 180 180 172 161 148 147 146 149 161 161 156 151 142 136 125 124 134 123
185 187 210 168 242 232 224 217 229 259 263 252 245 257 274 290 295 257 225 207 194 177 195 189 166 177 177 177 181 177 172 178 179 183 175 180 184 178 176 175 170 163 156 156 150 148 148 142 148 148 146 149 148 130
192 204 196 204 210 222 206 224 249 255 245 233 236 230 256 257 264 246 213 200 195 190 184 193 195 189 178 173 175 179 188 182 184 188 184 181 179 182 184 184 179 169 160 158 158 157 157 161 163 158 159 161 160 160
194 193 166 164 163 233 212 220 250 252 239 242 237 224 224 236 257 246 233 201 201 206 193 193 192 199 189 173 185 171 172 176 178 179 178 179 184 187 187 187 183 172 165 158 158 168 185 199 197 202 215 229 240 254